Hourly Weather Rumiejki

Today, 16 June, Wednesday

Time Temperature Precipitation Wind Pressure Humidity
00:00 +13°C° 0 mm 3 mps 756 mmHg 89%
01:00 +12°C° 0 mm 3 mps 756 mmHg 89%
02:00 +12°C° 0 mm 3 mps 756 mmHg 91%
03:00 +12°C° 0 mm 3 mps 756 mmHg 92%
04:00 +11°C° 0 mm 3 mps 756 mmHg 94%
05:00 +12°C° 0 mm 3 mps 756 mmHg 87%
06:00 +14°C° 0 mm 3 mps 757 mmHg 81%
07:00 +16°C° 0 mm 3 mps 757 mmHg 75%
08:00 +17°C° 0 mm 3 mps 757 mmHg 70%
09:00 +19°C° 0 mm 2 mps 757 mmHg 66%
10:00 +20°C° 0 mm 2 mps 757 mmHg 62%
11:00 +21°C° 0 mm 2 mps 757 mmHg 60%
12:00 +23°C° 0 mm 2 mps 756 mmHg 59%
13:00 +24°C° 0 mm 2 mps 756 mmHg 57%
14:00 +25°C° 0 mm 2 mps 756 mmHg 57%
15:00 +25°C° 0 mm 2 mps 756 mmHg 56%
16:00 +25°C° 0 mm 2 mps 756 mmHg 56%
17:00 +24°C° 0 mm 2 mps 756 mmHg 62%
18:00 +23°C° 0 mm 2 mps 756 mmHg 68%
19:00 +21°C° 0 mm 3 mps 756 mmHg 75%
20:00 +20°C° 0 mm 3 mps 756 mmHg 78%
21:00 +19°C° 0 mm 3 mps 756 mmHg 81%
22:00 +17°C° 0 mm 3 mps 756 mmHg 84%
23:00 +17°C° 0 mm 3 mps 756 mmHg 85%

Tomorrow, 17 June, Thursday

Time Temperature Precipitation Wind Pressure Humidity
00:00 +16°C° 0 mm 3 mps 756 mmHg 86%
01:00 +16°C° 0 mm 3 mps 756 mmHg 87%
02:00 +16°C° 0 mm 3 mps 756 mmHg 87%
03:00 +14°C° 0 mm 3 mps 756 mmHg 87%
04:00 +14°C° 0 mm 3 mps 756 mmHg 86%
05:00 +17°C° 0 mm 3 mps 756 mmHg 83%
06:00 +19°C° 0 mm 4 mps 756 mmHg 80%
07:00 +21°C° 0 mm 5 mps 756 mmHg 77%
08:00 +22°C° 0 mm 5 mps 757 mmHg 72%
09:00 +23°C° 0 mm 5 mps 757 mmHg 67%
10:00 +26°C° 0 mm 5 mps 757 mmHg 62%
11:00 +27°C° 0 mm 5 mps 756 mmHg 59%
12:00 +27°C° 0 mm 5 mps 756 mmHg 56%
13:00 +28°C° 0 mm 5 mps 756 mmHg 53%
14:00 +28°C° 0 mm 4 mps 756 mmHg 53%
15:00 +29°C° 0 mm 4 mps 756 mmHg 53%
16:00 +29°C° 0 mm 4 mps 756 mmHg 52%
17:00 +27°C° 0 mm 4 mps 756 mmHg 59%
18:00 +26°C° 0 mm 4 mps 756 mmHg 65%
19:00 +23°C° 0 mm 4 mps 756 mmHg 71%
20:00 +22°C° 0 mm 4 mps 756 mmHg 71%
21:00 +21°C° 0 mm 4 mps 756 mmHg 71%
22:00 +19°C° 0 mm 4 mps 756 mmHg 70%
23:00 +19°C° 0 mm 4 mps 756 mmHg 73%

Day after tomorrow, 18 June, Friday

Time Temperature Precipitation Wind Pressure Humidity
00:00 +18°C° 0 mm 4 mps 756 mmHg 75%
01:00 +18°C° 0 mm 3 mps 756 mmHg 77%
02:00 +17°C° 0 mm 3 mps 756 mmHg 79%
03:00 +17°C° 0 mm 3 mps 756 mmHg 81%
04:00 +16°C° 0 mm 3 mps 756 mmHg 83%
05:00 +18°C° 0 mm 3 mps 756 mmHg 80%
06:00 +20°C° 0 mm 4 mps 756 mmHg 76%
07:00 +21°C° 0 mm 4 mps 756 mmHg 73%
08:00 +23°C° 0 mm 4 mps 756 mmHg 68%
09:00 +26°C° 0 mm 4 mps 756 mmHg 62%
10:00 +28°C° 0 mm 4 mps 755 mmHg 57%
11:00 +29°C° 0 mm 4 mps 755 mmHg 53%
12:00 +30°C° 0 mm 4 mps 755 mmHg 50%
13:00 +32°C° 0 mm 4 mps 755 mmHg 46%
14:00 +32°C° 0 mm 4 mps 755 mmHg 47%
15:00 +32°C° 0 mm 4 mps 755 mmHg 48%
16:00 +32°C° 0 mm 4 mps 754 mmHg 48%
17:00 +30°C° 0 mm 4 mps 754 mmHg 56%
18:00 +28°C° 0 mm 3 mps 754 mmHg 63%
19:00 +27°C° 0 mm 3 mps 754 mmHg 71%
20:00 +26°C° 0 mm 3 mps 754 mmHg 73%
21:00 +24°C° 0 mm 3 mps 754 mmHg 76%
22:00 +22°C° 0 mm 3 mps 755 mmHg 79%
23:00 +22°C° 0 mm 3 mps 755 mmHg 82%

19 June, Saturday

Time Temperature Precipitation Wind Pressure Humidity
00:00 +21°C° 0 mm 3 mps 755 mmHg 85%
01:00 +20°C° 0 mm 3 mps 755 mmHg 88%
02:00 +20°C° 0 mm 3 mps 755 mmHg 90%
03:00 +20°C° 0 mm 3 mps 754 mmHg 92%
04:00 +19°C° 0 mm 3 mps 754 mmHg 94%
05:00 +21°C° 0 mm 3 mps 754 mmHg 88%
06:00 +22°C° 0 mm 4 mps 755 mmHg 82%
07:00 +25°C° 0 mm 4 mps 755 mmHg 76%
08:00 +27°C° 0 mm 4 mps 755 mmHg 70%
09:00 +28°C° 0 mm 4 mps 754 mmHg 65%
10:00 +30°C° 0 mm 4 mps 754 mmHg 60%
11:00 +30°C° 0 mm 4 mps 754 mmHg 56%
12:00 +31°C° 0 mm 3 mps 754 mmHg 53%
13:00 +33°C° 0 mm 3 mps 754 mmHg 49%
14:00 +33°C° 0 mm 3 mps 754 mmHg 49%
15:00 +34°C° 0 mm 3 mps 753 mmHg 49%
16:00 +34°C° 0 mm 3 mps 753 mmHg 49%
17:00 +31°C° 0 mm 3 mps 753 mmHg 55%
18:00 +30°C° 0 mm 3 mps 753 mmHg 62%
19:00 +29°C° 0 mm 3 mps 753 mmHg 69%
20:00 +27°C° 0.3 mm 3 mps 754 mmHg 73%
21:00 +26°C° 0.3 mm 3 mps 754 mmHg 76%
22:00 +23°C° 0.3 mm 4 mps 754 mmHg 80%
23:00 +22°C° 0.3 mm 4 mps 754 mmHg 83%

20 June, Sunday

Time Temperature Precipitation Wind Pressure Humidity
00:00 +21°C° 0.3 mm 3 mps 754 mmHg 86%
01:00 +21°C° 0.3 mm 3 mps 754 mmHg 88%
02:00 +20°C° 0 mm 3 mps 754 mmHg 89%
03:00 +20°C° 0 mm 3 mps 754 mmHg 89%
04:00 +19°C° 0 mm 3 mps 754 mmHg 89%
05:00 +21°C° 0 mm 4 mps 754 mmHg 84%
06:00 +22°C° 0 mm 4 mps 754 mmHg 78%
07:00 +23°C° 0 mm 4 mps 754 mmHg 73%
08:00 +26°C° 0 mm 5 mps 754 mmHg 67%
09:00 +27°C° 0 mm 5 mps 754 mmHg 61%
10:00 +29°C° 0 mm 5 mps 754 mmHg 54%
11:00 +30°C° 0 mm 5 mps 753 mmHg 51%
12:00 +30°C° 0 mm 5 mps 753 mmHg 48%
13:00 +32°C° 0 mm 5 mps 753 mmHg 45%
14:00 +32°C° 0 mm 5 mps 752 mmHg 46%
15:00 +32°C° 0 mm 5 mps 752 mmHg 48%
16:00 +32°C° 0 mm 5 mps 752 mmHg 49%
17:00 +30°C° 0 mm 4 mps 752 mmHg 56%
18:00 +29°C° 0 mm 4 mps 752 mmHg 62%
19:00 +27°C° 0 mm 3 mps 752 mmHg 69%
20:00 +26°C° 0 mm 3 mps 752 mmHg 72%
21:00 +24°C° 0 mm 3 mps 752 mmHg 75%
22:00 +22°C° 0 mm 3 mps 752 mmHg 78%
23:00 +22°C° 0 mm 4 mps 752 mmHg 79%

21 June, Monday

Time Temperature Precipitation Wind Pressure Humidity
00:00 +22°C° 0 mm 4 mps 751 mmHg 80%
01:00 +21°C° 0 mm 4 mps 751 mmHg 81%
02:00 +21°C° 0 mm 4 mps 751 mmHg 84%
03:00 +20°C° 0 mm 4 mps 751 mmHg 87%
04:00 +20°C° 0 mm 4 mps 751 mmHg 91%
05:00 +21°C° 0 mm 4 mps 751 mmHg 85%
06:00 +22°C° 0 mm 4 mps 751 mmHg 80%
07:00 +25°C° 0 mm 5 mps 751 mmHg 75%
08:00 +27°C° 0 mm 5 mps 751 mmHg 68%
09:00 +28°C° 0 mm 5 mps 750 mmHg 61%
10:00 +30°C° 0 mm 5 mps 750 mmHg 54%
11:00 +32°C° 0 mm 5 mps 750 mmHg 52%
12:00 +33°C° 0 mm 5 mps 750 mmHg 50%
13:00 +33°C° 0 mm 5 mps 750 mmHg 47%
14:00 +33°C° 0 mm 5 mps 749 mmHg 47%
15:00 +33°C° 0 mm 5 mps 749 mmHg 47%
16:00 +34°C° 0 mm 5 mps 749 mmHg 47%
17:00 +32°C° 0 mm 5 mps 748 mmHg 52%
18:00 +30°C° 0 mm 4 mps 748 mmHg 57%
19:00 +28°C° 0 mm 4 mps 748 mmHg 62%
20:00 +28°C° 0 mm 5 mps 747 mmHg 62%
21:00 +27°C° 0 mm 6 mps 747 mmHg 62%
22:00 +26°C° 0 mm 6 mps 747 mmHg 63%
23:00 +24°C° 0 mm 6 mps 747 mmHg 65%
Show more